QPF
0.01 0.02 0.04 0.03 0.02 0.03 0.05 0.06 0.07 0.09 0.10 0.09 0.07 0.07 0.06 0.06 0.05 0.05 0.05 0.05 0.05 0.06 0.06 0.06 0.06 0.07 0.05 0.05 0.04 0.03 0.03 0.03 0.03 0.03 0.03 0.03 0.02 0.03 0.03 0.04 0.05 0.06 0.05
0.01 0.02 0.04 0.03 0.02 0.03 0.03 0.03 0.04 0.06 0.07 0.06 0.04 0.04 0.05 0.06 0.07 0.06 0.06 0.07 0.07 0.06 0.04 0.04 0.06 0.05 0.04 0.04 0.04 0.04 0.04 0.04 0.04 0.04 0.04 0.04 0.03 0.03 0.03 0.04 0.04 0.05 0.06
0.01 0.02 0.02 0.02 0.02 0.03 0.03 0.03 0.04 0.05 0.04 0.04 0.03 0.04 0.05 0.06 0.08 0.08 0.08 0.08 0.07 0.06 0.04 0.04 0.05 0.05 0.05 0.04 0.04 0.04 0.05 0.04 0.03 0.03 0.04 0.05 0.04 0.03 0.04 0.04 0.04 0.05 0.06
0.01 0.01 0.01 0.02 0.02 0.03 0.03 0.04 0.04 0.05 0.05 0.04 0.04 0.06 0.06 0.05 0.06 0.08 0.07 0.06 0.04 0.05 0.04 0.04 0.04 0.04 0.04 0.04 0.04 0.04 0.04 0.04 0.03 0.03 0.03 0.05 0.06 0.05 0.04 0.04 0.04 0.05 0.06
0.01 0.01 0.01 0.02 0.02 0.03 0.03 0.03 0.04 0.05 0.04 0.04 0.04 0.06 0.05 0.05 0.06 0.05 0.04 0.03 0.03 0.03 0.03 0.03 0.04 0.04 0.05 0.04 0.04 0.04 0.04 0.05 0.05 0.04 0.04 0.03 0.04 0.05 0.05 0.05 0.05 0.05 0.06
0.01 0.01 0.02 0.02 0.02 0.04 0.04 0.03 0.04 0.04 0.04 0.04 0.05 0.06 0.06 0.05 0.04 0.04 0.04 0.05 0.05 0.04 0.04 0.03 0.04 0.04 0.04 0.04 0.04 0.05 0.06 0.05 0.06 0.06 0.05 0.04 0.04 0.04 0.05 0.05 0.07 0.07 0.07
0.01 0.01 0.01 0.01 0.02 0.03 0.03 0.04 0.05 0.05 0.03 0.03 0.04 0.05 0.06 0.05 0.03 0.04 0.05 0.06 0.07 0.07 0.06 0.05 0.05 0.05 0.05 0.03 0.04 0.05 0.05 0.05 0.05 0.05 0.05 0.05 0.05 0.05 0.05 0.05 0.06 0.08 0.09
0.01 0.01 0.01 0.01 0.02 0.02 0.02 0.03 0.04 0.05 0.05 0.06 0.06 0.06 0.05 0.05 0.03 0.04 0.05 0.05 0.05 0.05 0.06 0.07 0.05 0.05 0.04 0.03 0.04 0.06 0.06 0.05 0.05 0.05 0.04 0.05 0.04 0.05 0.05 0.06 0.07 0.08 0.08
0.01 0.01 0.01 0.01 0.02 0.02 0.02 0.03 0.05 0.05 0.05 0.06 0.07 0.05 0.04 0.03 0.03 0.04 0.04 0.03 0.03 0.04 0.06 0.07 0.05 0.04 0.04 0.05 0.04 0.05 0.06 0.06 0.05 0.05 0.04 0.04 0.05 0.05 0.04 0.05 0.07 0.08 0.09
0.01 0.01 0.02 0.03 0.04 0.03 0.03 0.03 0.03 0.02 0.03 0.04 0.07 0.07 0.04 0.03 0.04 0.04 0.04 0.04 0.03 0.03 0.05 0.05 0.05 0.06 0.08 0.07 0.04 0.04 0.04 0.04 0.04 0.04 0.03 0.04 0.05 0.04 0.04 0.03 0.04 0.06 0.08
0.02 0.02 0.03 0.06 0.05 0.04 0.04 0.03 0.03 0.03 0.03 0.04 0.05 0.05 0.04 0.04 0.04 0.04 0.04 0.03 0.04 0.03 0.03 0.04 0.03 0.05 0.04 0.04 0.04 0.03 0.02 0.02 0.02 0.03 0.04 0.04 0.04 0.04 0.03 0.03 0.03 0.04 0.06
0.02 0.02 0.03 0.05 0.03 0.04 0.04 0.05 0.05 0.04 0.03 0.03 0.03 0.03 0.04 0.05 0.07 0.08 0.05 0.03 0.02 0.01 0.02 0.02 0.02 0.02 0.02 0.02 0.02 0.03 0.02 0.02 0.02 0.02 0.02 0.03 0.03 0.03 0.03 0.03 0.03 0.03 0.04
0.02 0.02 0.03 0.04 0.03 0.04 0.04 0.06 0.06 0.05 0.03 0.03 0.03 0.03 0.04 0.06 0.09 0.10 0.06 0.04 0.02 0.02 0.02 0.02 0.02 0.02 0.02 0.01 0.02 0.03 0.03 0.03 0.03 0.03 0.03 0.02 0.03 0.03 0.02 0.03 0.03 0.04 0.04
0.02 0.02 0.03 0.04 0.04 0.04 0.04 0.04 0.05 0.04 0.03 0.02 0.03 0.03 0.03 0.05 0.08 0.08 0.04 0.03 0.02 0.01 0.02 0.02 0.02 0.02 0.02 0.01 0.02 0.02 0.03 0.04 0.03 0.03 0.03 0.02 0.03 0.03 0.02 0.02 0.03 0.04 0.05
0.04 0.02 0.02 0.03 0.03 0.03 0.03 0.03 0.02 0.02 0.02 0.02 0.03 0.05 0.04 0.03 0.05 0.06 0.04 0.03 0.02 0.01 0.01 0.02 0.02 0.02 0.02 0.01 0.02 0.02 0.03 0.03 0.04 0.03 0.03 0.02 0.02 0.02 0.02 0.02 0.03 0.04 0.04
0.03 0.02 0.02 0.02 0.03 0.03 0.03 0.03 0.02 0.02 0.02 0.02 0.01 0.03 0.02 0.02 0.02 0.03 0.03 0.02 0.02 0.02 0.02 0.02 0.02 0.02 0.02 0.01 0.01 0.02 0.02 0.03 0.03 0.03 0.03 0.02 0.02 0.02 0.02 0.03 0.03 0.04 0.04
0.02 0.01 0.01 0.01 0.02 0.03 0.03 0.02 0.03 0.02 0.02 0.02 0.02 0.02 0.02 0.01 0.02 0.02 0.02 0.02 0.02 0.02 0.02 0.02 0.02 0.02 0.01 0.01 0.01 0.01 0.02 0.02 0.03 0.04 0.04 0.03 0.02 0.03 0.03 0.02 0.03 0.03 0.02
0.01 0.01 0.01 0.01 0.02 0.02 0.02 0.03 0.03 0.02 0.02 0.02 0.02 0.03 0.03 0.02 0.03 0.02 0.02 0.01 0.01 0.01 0.02 0.02 0.03 0.03 0.03 0.03 0.03 0.03 0.02 0.03 0.03 0.04 0.05 0.05 0.04 0.04 0.04 0.04 0.04 0.04 0.04
0.01 0.00 0.01 0.01 0.01 0.03 0.04 0.04 0.03 0.02 0.02 0.02 0.02 0.03 0.02 0.02 0.02 0.02 0.03 0.02 0.02 0.02 0.02 0.02 0.02 0.02 0.03 0.03 0.04 0.05 0.04 0.04 0.04 0.05 0.05 0.06 0.05 0.04 0.06 0.06 0.05 0.05 0.05
0.01 0.01 0.01 0.01 0.02 0.03 0.04 0.05 0.05 0.04 0.04 0.03 0.03 0.03 0.03 0.02 0.02 0.03 0.04 0.03 0.02 0.03 0.03 0.02 0.02 0.02 0.03 0.04 0.04 0.04 0.04 0.05 0.05 0.05 0.06 0.07 0.05 0.04 0.05 0.06 0.06 0.06 0.05
0.02 0.01 0.01 0.02 0.03 0.04 0.04 0.06 0.06 0.05 0.04 0.04 0.04 0.04 0.04 0.03 0.03 0.05 0.05 0.03 0.02 0.02 0.02 0.02 0.02 0.03 0.03 0.04 0.05 0.04 0.04 0.04 0.04 0.04 0.05 0.05 0.04 0.03 0.03 0.04 0.04 0.03 0.03
0.01 0.01 0.02 0.03 0.03 0.04 0.05 0.06 0.06 0.05 0.04 0.05 0.06 0.05 0.04 0.03 0.04 0.05 0.03 0.02 0.01 0.01 0.01 0.01 0.02 0.02 0.02 0.02 0.02 0.01 0.02 0.02 0.02 0.02 0.03 0.03 0.02 0.02 0.02 0.02 0.01 0.01 0.01
0.01 0.02 0.02 0.02 0.02 0.03 0.04 0.05 0.06 0.06 0.04 0.03 0.04 0.05 0.04 0.04 0.05 0.03 0.02 0.02 0.01 0.01 0.01 0.01 0.01 0.01 0.01 0.01 0.01 0.01 0.01 0.01 0.01 0.01 0.02 0.02 0.02 0.02 0.02 0.02 0.02 0.01 0.01
0.03 0.02 0.02 0.02 0.02 0.03 0.03 0.05 0.06 0.06 0.06 0.05 0.04 0.04 0.03 0.05 0.04 0.02 0.02 0.02 0.01 0.01 0.01 0.01 0.01 0.01 0.01 0.01 0.01 0.01 0.01 0.01 0.01 0.01 0.02 0.02 0.01 0.01 0.01 0.01 0.01 0.02 0.02
0.03 0.03 0.02 0.02 0.02 0.03 0.03 0.04 0.05 0.05 0.05 0.06 0.06 0.05 0.05 0.04 0.02 0.01 0.01 0.01 0.01 0.01 0.01 0.01 0.01 0.01 0.02 0.02 0.02 0.02 0.01 0.01 0.01 0.01 0.01 0.01 0.01 0.01 0.01 0.01 0.01 0.01 0.01
0.02 0.02 0.02 0.02 0.02 0.02 0.03 0.04 0.04 0.03 0.04 0.06 0.06 0.06 0.05 0.03 0.02 0.01 0.01 0.00 0.01 0.00 0.00 0.00 0.01 0.01 0.01 0.01 0.01 0.01 0.01 0.00 0.00 0.01 0.01 0.01 0.01 0.01 0.01 0.01 0.01 0.01 0.01
MSLP
1012.64 1013.33 1013.91 1014.38 1014.73 1015.00 1015.22 1015.43 1015.64 1015.89 1016.16 1016.44 1016.70 1016.92 1017.09 1017.18 1017.22 1017.21 1017.17 1017.12 1017.08 1017.04 1017.00 1016.96 1016.91 1016.82 1016.70 1016.53 1016.31 1016.04 1015.71 1015.34 1014.91 1014.44 1013.93 1013.40 1012.86 1012.32 1011.80 1011.34 1010.93 1010.58 1010.31
1013.05 1013.76 1014.35 1014.79 1015.10 1015.31 1015.48 1015.65 1015.85 1016.08 1016.35 1016.63 1016.88 1017.08 1017.20 1017.24 1017.22 1017.14 1017.05 1016.97 1016.91 1016.87 1016.86 1016.85 1016.82 1016.75 1016.63 1016.44 1016.19 1015.89 1015.54 1015.16 1014.76 1014.33 1013.87 1013.40 1012.90 1012.40 1011.88 1011.38 1010.91 1010.48 1010.12
1013.32 1014.09 1014.70 1015.15 1015.44 1015.62 1015.75 1015.89 1016.06 1016.29 1016.57 1016.85 1017.10 1017.28 1017.38 1017.38 1017.29 1017.16 1017.01 1016.87 1016.78 1016.73 1016.72 1016.71 1016.69 1016.62 1016.49 1016.30 1016.03 1015.72 1015.37 1015.01 1014.64 1014.26 1013.88 1013.47 1013.04 1012.57 1012.06 1011.53 1010.99 1010.46 1009.98
1013.41 1014.27 1014.95 1015.42 1015.72 1015.89 1016.00 1016.12 1016.28 1016.51 1016.79 1017.08 1017.34 1017.53 1017.61 1017.58 1017.45 1017.26 1017.05 1016.85 1016.71 1016.62 1016.57 1016.55 1016.52 1016.45 1016.31 1016.11 1015.84 1015.53 1015.20 1014.86 1014.54 1014.22 1013.90 1013.57 1013.19 1012.76 1012.25 1011.69 1011.08 1010.45 1009.85
1013.35 1014.31 1015.07 1015.60 1015.92 1016.10 1016.21 1016.32 1016.48 1016.70 1016.99 1017.30 1017.58 1017.78 1017.86 1017.81 1017.65 1017.41 1017.14 1016.88 1016.67 1016.52 1016.43 1016.37 1016.32 1016.23 1016.09 1015.88 1015.62 1015.31 1015.00 1014.69 1014.40 1014.14 1013.88 1013.60 1013.28 1012.88 1012.38 1011.79 1011.12 1010.40 1009.69
1013.17 1014.23 1015.07 1015.66 1016.03 1016.23 1016.34 1016.45 1016.60 1016.83 1017.13 1017.45 1017.75 1017.96 1018.06 1018.01 1017.82 1017.55 1017.23 1016.91 1016.63 1016.42 1016.27 1016.17 1016.08 1015.97 1015.81 1015.60 1015.34 1015.04 1014.73 1014.44 1014.18 1013.95 1013.73 1013.50 1013.21 1012.84 1012.36 1011.75 1011.05 1010.27 1009.47
1012.91 1014.05 1014.96 1015.61 1016.02 1016.25 1016.37 1016.48 1016.63 1016.86 1017.16 1017.49 1017.80 1018.03 1018.14 1018.09 1017.91 1017.61 1017.25 1016.88 1016.55 1016.28 1016.07 1015.92 1015.80 1015.66 1015.48 1015.26 1014.99 1014.68 1014.37 1014.08 1013.82 1013.60 1013.40 1013.19 1012.93 1012.59 1012.13 1011.54 1010.83 1010.02 1009.18
1012.61 1013.80 1014.76 1015.46 1015.91 1016.16 1016.30 1016.41 1016.55 1016.77 1017.06 1017.39 1017.71 1017.95 1018.07 1018.04 1017.85 1017.55 1017.17 1016.77 1016.40 1016.08 1015.83 1015.63 1015.47 1015.30 1015.10 1014.86 1014.56 1014.24 1013.90 1013.58 1013.30 1013.06 1012.85 1012.65 1012.42 1012.11 1011.69 1011.14 1010.46 1009.67 1008.82
1012.32 1013.52 1014.50 1015.23 1015.70 1015.98 1016.13 1016.24 1016.37 1016.57 1016.85 1017.16 1017.47 1017.72 1017.84 1017.82 1017.65 1017.35 1016.97 1016.56 1016.17 1015.82 1015.53 1015.31 1015.11 1014.91 1014.68 1014.40 1014.08 1013.71 1013.33 1012.96 1012.63 1012.35 1012.12 1011.91 1011.69 1011.42 1011.06 1010.57 1009.96 1009.23 1008.41
1012.04 1013.21 1014.19 1014.93 1015.42 1015.72 1015.88 1015.99 1016.11 1016.30 1016.55 1016.84 1017.13 1017.37 1017.50 1017.49 1017.33 1017.05 1016.68 1016.28 1015.88 1015.52 1015.21 1014.96 1014.74 1014.51 1014.24 1013.93 1013.55 1013.13 1012.69 1012.26 1011.87 1011.54 1011.26 1011.04 1010.83 1010.60 1010.29 1009.89 1009.36 1008.72 1007.97
1011.77 1012.90 1013.85 1014.58 1015.08 1015.40 1015.57 1015.69 1015.82 1015.99 1016.21 1016.48 1016.75 1016.96 1017.09 1017.08 1016.94 1016.69 1016.34 1015.95 1015.56 1015.21 1014.90 1014.63 1014.38 1014.12 1013.82 1013.46 1013.03 1012.55 1012.05 1011.54 1011.08 1010.69 1010.37 1010.11 1009.90 1009.70 1009.46 1009.14 1008.71 1008.16 1007.51
1011.50 1012.57 1013.48 1014.20 1014.71 1015.04 1015.24 1015.37 1015.50 1015.67 1015.87 1016.12 1016.36 1016.56 1016.67 1016.68 1016.55 1016.31 1016.00 1015.63 1015.26 1014.91 1014.60 1014.32 1014.05 1013.76 1013.42 1013.02 1012.54 1012.01 1011.44 1010.87 1010.34 1009.88 1009.50 1009.22 1009.00 1008.81 1008.62 1008.37 1008.03 1007.58 1007.02
1011.21 1012.21 1013.09 1013.79 1014.30 1014.65 1014.88 1015.04 1015.19 1015.35 1015.55 1015.78 1016.00 1016.19 1016.29 1016.29 1016.18 1015.97 1015.68 1015.34 1014.98 1014.65 1014.33 1014.03 1013.74 1013.42 1013.05 1012.61 1012.09 1011.51 1010.89 1010.26 1009.67 1009.15 1008.73 1008.41 1008.17 1007.99 1007.82 1007.62 1007.35 1006.98 1006.50
1010.89 1011.83 1012.67 1013.34 1013.86 1014.23 1014.49 1014.69 1014.86 1015.04 1015.24 1015.46 1015.67 1015.85 1015.95 1015.95 1015.85 1015.66 1015.39 1015.06 1014.73 1014.39 1014.07 1013.75 1013.43 1013.09 1012.69 1012.21 1011.67 1011.05 1010.39 1009.73 1009.10 1008.53 1008.07 1007.70 1007.43 1007.23 1007.07 1006.89 1006.66 1006.35 1005.94
1010.53 1011.42 1012.21 1012.87 1013.39 1013.77 1014.07 1014.29 1014.50 1014.70 1014.92 1015.14 1015.35 1015.52 1015.62 1015.63 1015.54 1015.36 1015.10 1014.79 1014.46 1014.11 1013.77 1013.44 1013.09 1012.71 1012.28 1011.79 1011.22 1010.60 1009.92 1009.24 1008.59 1008.00 1007.49 1007.09 1006.78 1006.55 1006.36 1006.18 1005.97 1005.68 1005.32
1010.13 1010.98 1011.73 1012.36 1012.88 1013.28 1013.59 1013.85 1014.09 1014.32 1014.56 1014.79 1015.01 1015.18 1015.29 1015.31 1015.22 1015.05 1014.80 1014.49 1014.15 1013.79 1013.42 1013.05 1012.67 1012.26 1011.81 1011.30 1010.73 1010.10 1009.44 1008.76 1008.11 1007.51 1006.98 1006.54 1006.20 1005.92 1005.70 1005.49 1005.26 1004.99 1004.65
1009.71 1010.51 1011.23 1011.84 1012.34 1012.74 1013.08 1013.36 1013.63 1013.89 1014.14 1014.40 1014.62 1014.81 1014.92 1014.94 1014.87 1014.70 1014.45 1014.13 1013.77 1013.38 1012.98 1012.57 1012.15 1011.71 1011.24 1010.72 1010.16 1009.55 1008.91 1008.26 1007.62 1007.03 1006.49 1006.03 1005.65 1005.33 1005.06 1004.81 1004.56 1004.28 1003.95
1009.29 1010.05 1010.73 1011.31 1011.80 1012.20 1012.54 1012.85 1013.13 1013.41 1013.69 1013.96 1014.20 1014.39 1014.51 1014.54 1014.47 1014.30 1014.04 1013.71 1013.32 1012.90 1012.46 1012.01 1011.55 1011.08 1010.58 1010.07 1009.52 1008.93 1008.33 1007.71 1007.11 1006.53 1006.00 1005.53 1005.12 1004.76 1004.45 1004.16 1003.87 1003.58 1003.25
1008.88 1009.61 1010.26 1010.81 1011.28 1011.68 1012.03 1012.35 1012.65 1012.94 1013.24 1013.52 1013.77 1013.96 1014.09 1014.12 1014.04 1013.87 1013.59 1013.24 1012.82 1012.36 1011.88 1011.38 1010.89 1010.39 1009.88 1009.37 1008.83 1008.28 1007.72 1007.15 1006.58 1006.03 1005.52 1005.04 1004.61 1004.23 1003.88 1003.55 1003.24 1002.92 1002.60
1008.52 1009.22 1009.84 1010.37 1010.83 1011.23 1011.58 1011.91 1012.22 1012.53 1012.83 1013.12 1013.37 1013.56 1013.68 1013.70 1013.61 1013.42 1013.13 1012.75 1012.30 1011.81 1011.29 1010.76 1010.23 1009.71 1009.20 1008.68 1008.17 1007.65 1007.12 1006.59 1006.06 1005.54 1005.05 1004.58 1004.14 1003.73 1003.35 1003.00 1002.66 1002.33 1002.01
1008.24 1008.91 1009.50 1010.03 1010.48 1010.88 1011.24 1011.57 1011.90 1012.21 1012.52 1012.80 1013.04 1013.22 1013.32 1013.32 1013.21 1012.99 1012.68 1012.27 1011.80 1011.28 1010.73 1010.18 1009.64 1009.10 1008.58 1008.08 1007.58 1007.08 1006.58 1006.09 1005.59 1005.09 1004.61 1004.14 1003.70 1003.28 1002.88 1002.51 1002.16 1001.83 1001.50
1008.03 1008.68 1009.26 1009.77 1010.23 1010.63 1011.01 1011.35 1011.69 1012.01 1012.31 1012.57 1012.79 1012.94 1013.01 1012.98 1012.84 1012.60 1012.25 1011.83 1011.33 1010.80 1010.24 1009.68 1009.12 1008.59 1008.07 1007.57 1007.09 1006.61 1006.13 1005.65 1005.17 1004.69 1004.21 1003.74 1003.29 1002.86 1002.46 1002.08 1001.72 1001.38 1001.06
1007.90 1008.52 1009.09 1009.61 1010.07 1010.49 1010.88 1011.24 1011.58 1011.89 1012.18 1012.42 1012.61 1012.72 1012.74 1012.67 1012.49 1012.21 1011.85 1011.40 1010.90 1010.36 1009.81 1009.25 1008.70 1008.18 1007.67 1007.18 1006.70 1006.23 1005.76 1005.28 1004.80 1004.32 1003.83 1003.36 1002.90 1002.45 1002.04 1001.66 1001.30 1000.97 1000.66
1007.84 1008.44 1008.99 1009.51 1009.98 1010.41 1010.81 1011.18 1011.52 1011.83 1012.09 1012.30 1012.44 1012.50 1012.47 1012.35 1012.13 1011.82 1011.43 1010.97 1010.47 1009.94 1009.40 1008.86 1008.34 1007.83 1007.33 1006.85 1006.38 1005.91 1005.43 1004.94 1004.44 1003.94 1003.44 1002.95 1002.47 1002.02 1001.60 1001.22 1000.87 1000.55 1000.26
1007.82 1008.39 1008.93 1009.43 1009.90 1010.34 1010.75 1011.12 1011.46 1011.75 1011.98 1012.15 1012.24 1012.24 1012.15 1011.98 1011.71 1011.37 1010.96 1010.50 1010.01 1009.50 1008.99 1008.47 1007.98 1007.49 1007.01 1006.53 1006.06 1005.57 1005.07 1004.56 1004.04 1003.51 1002.98 1002.47 1001.98 1001.52 1001.10 1000.73 1000.40 1000.10 999.84
1007.82 1008.35 1008.86 1009.34 1009.80 1010.24 1010.64 1011.01 1011.33 1011.59 1011.79 1011.91 1011.95 1011.89 1011.75 1011.52 1011.22 1010.85 1010.43 1009.97 1009.50 1009.01 1008.53 1008.05 1007.57 1007.10 1006.63 1006.15 1005.66 1005.16 1004.63 1004.09 1003.53 1002.97 1002.42 1001.89 1001.40 1000.94 1000.53 1000.17 999.87 999.61 999.38
Thickness
5759 5756 5752 5749 5744 5739 5735 5730 5725 5720 5715 5710 5706 5702 5698 5696 5693 5690 5685 5682 5680 5677 5675 5675 5671 5669 5668 5665 5663 5661 5661 5660 5659 5659 5661 5663 5665 5663 5662 5662 5661 5661 5661
5752 5749 5747 5744 5739 5735 5731 5726 5721 5716 5711 5706 5702 5698 5694 5691 5688 5684 5679 5676 5674 5672 5671 5667 5666 5664 5661 5659 5656 5654 5653 5653 5652 5651 5651 5654 5657 5656 5658 5655 5654 5654 5654
5746 5743 5741 5739 5735 5731 5727 5723 5717 5711 5706 5701 5698 5693 5688 5685 5682 5678 5675 5671 5668 5666 5663 5661 5660 5657 5656 5654 5650 5647 5645 5645 5645 5644 5642 5642 5644 5646 5649 5647 5647 5646 5647
5744 5741 5739 5735 5731 5728 5724 5719 5713 5707 5701 5697 5693 5689 5685 5681 5677 5673 5670 5666 5663 5661 5658 5656 5653 5651 5650 5647 5645 5643 5640 5637 5638 5638 5636 5635 5634 5633 5637 5639 5640 5640 5640
5741 5737 5735 5732 5728 5724 5719 5714 5708 5702 5697 5693 5689 5684 5681 5677 5673 5668 5664 5661 5659 5656 5653 5651 5648 5646 5645 5642 5638 5635 5633 5633 5631 5631 5630 5630 5629 5628 5626 5628 5630 5633 5635
5737 5734 5731 5728 5723 5719 5714 5709 5703 5697 5693 5689 5685 5680 5675 5671 5666 5663 5660 5657 5655 5652 5649 5646 5643 5641 5639 5636 5633 5629 5627 5626 5624 5624 5625 5624 5623 5623 5623 5622 5623 5624 5628
5730 5728 5725 5720 5716 5713 5709 5705 5699 5693 5689 5685 5681 5676 5671 5667 5662 5659 5657 5653 5651 5648 5644 5642 5639 5636 5633 5630 5627 5625 5622 5621 5619 5619 5620 5620 5620 5619 5619 5617 5618 5619 5623
5725 5722 5719 5715 5712 5709 5705 5700 5695 5689 5685 5681 5676 5672 5668 5665 5662 5656 5654 5650 5647 5645 5641 5637 5634 5632 5629 5627 5623 5621 5619 5617 5616 5616 5614 5614 5615 5615 5614 5613 5612 5613 5617
5719 5717 5713 5710 5707 5703 5699 5696 5691 5685 5681 5677 5672 5668 5664 5661 5657 5653 5649 5647 5642 5640 5637 5633 5631 5628 5625 5622 5619 5617 5615 5613 5613 5613 5612 5611 5612 5611 5611 5610 5608 5606 5607
5712 5709 5706 5703 5701 5698 5694 5690 5686 5681 5678 5674 5670 5666 5660 5656 5653 5650 5646 5643 5639 5636 5633 5630 5627 5624 5622 5618 5615 5614 5612 5610 5609 5608 5608 5607 5608 5608 5607 5606 5606 5604 5603
5705 5702 5699 5697 5694 5691 5688 5684 5681 5678 5674 5671 5666 5661 5657 5654 5650 5647 5644 5640 5636 5632 5629 5626 5623 5621 5618 5615 5612 5611 5609 5607 5606 5606 5606 5605 5604 5604 5604 5603 5603 5602 5601
5698 5696 5693 5690 5687 5684 5682 5680 5677 5674 5670 5666 5662 5657 5654 5651 5647 5644 5640 5637 5633 5630 5627 5623 5620 5617 5615 5612 5609 5608 5606 5605 5604 5603 5603 5603 5602 5600 5600 5599 5600 5600 5599
5689 5687 5685 5683 5680 5679 5677 5674 5671 5669 5666 5663 5658 5654 5651 5647 5643 5640 5637 5634 5630 5627 5624 5620 5618 5615 5613 5610 5608 5606 5605 5603 5602 5601 5600 5600 5599 5597 5597 5596 5597 5598 5599
5681 5679 5677 5676 5674 5673 5671 5669 5666 5665 5662 5659 5654 5651 5647 5644 5641 5638 5634 5631 5628 5625 5622 5619 5616 5613 5611 5608 5606 5605 5603 5602 5601 5600 5599 5598 5597 5595 5594 5594 5594 5594 5595
5674 5672 5669 5669 5668 5667 5666 5664 5662 5660 5658 5654 5651 5647 5644 5642 5639 5636 5632 5628 5625 5624 5621 5618 5615 5612 5609 5605 5603 5602 5602 5600 5599 5598 5598 5597 5594 5591 5590 5591 5591 5591 5591
5667 5665 5664 5663 5661 5661 5660 5659 5657 5655 5653 5650 5648 5646 5642 5640 5636 5633 5630 5627 5624 5621 5618 5616 5613 5610 5607 5601 5598 5596 5599 5599 5597 5596 5596 5596 5594 5591 5588 5586 5585 5585 5586
5661 5659 5658 5657 5656 5655 5654 5653 5653 5651 5649 5647 5645 5643 5641 5637 5634 5631 5628 5625 5621 5619 5616 5614 5611 5608 5604 5598 5595 5593 5595 5597 5596 5595 5594 5595 5595 5591 5590 5588 5585 5584 5583
5654 5653 5652 5651 5651 5650 5649 5648 5648 5647 5646 5644 5642 5641 5638 5636 5632 5629 5626 5623 5620 5617 5614 5611 5610 5607 5602 5597 5594 5592 5594 5596 5596 5595 5594 5592 5592 5590 5587 5587 5587 5587 5587
5649 5647 5647 5647 5646 5645 5644 5643 5643 5643 5642 5641 5639 5638 5636 5633 5630 5628 5624 5621 5618 5615 5613 5611 5608 5605 5601 5596 5593 5590 5595 5596 5596 5595 5594 5592 5590 5585 5582 5583 5585 5586 5587
5644 5643 5643 5643 5641 5640 5640 5639 5639 5639 5638 5637 5636 5635 5633 5630 5628 5626 5623 5621 5617 5615 5613 5610 5607 5604 5600 5595 5592 5589 5595 5595 5596 5595 5594 5590 5587 5582 5579 5581 5582 5583 5584
5639 5639 5639 5638 5637 5636 5635 5634 5635 5635 5635 5634 5633 5631 5630 5628 5626 5624 5621 5619 5617 5614 5611 5609 5607 5604 5600 5596 5592 5589 5592 5593 5594 5594 5594 5591 5583 5580 5577 5576 5578 5579 5578
5635 5635 5634 5633 5633 5632 5631 5631 5631 5632 5632 5631 5630 5628 5627 5626 5624 5621 5619 5618 5615 5613 5611 5609 5607 5606 5603 5598 5594 5590 5587 5587 5589 5590 5591 5588 5581 5578 5576 5576 5576 5574 5573
5630 5630 5630 5629 5629 5629 5629 5628 5629 5629 5629 5628 5627 5625 5625 5623 5622 5620 5619 5617 5615 5615 5614 5612 5610 5608 5606 5601 5595 5591 5588 5586 5586 5588 5586 5582 5579 5578 5580 5578 5575 5574 5577
5626 5626 5626 5625 5625 5626 5626 5627 5627 5627 5627 5626 5624 5623 5623 5622 5622 5620 5620 5619 5617 5615 5614 5612 5610 5608 5605 5602 5599 5596 5593 5588 5588 5587 5585 5581 5580 5579 5579 5579 5580 5579 5579
5623 5623 5622 5622 5623 5624 5624 5626 5626 5626 5625 5624 5623 5623 5623 5624 5621 5621 5619 5618 5615 5612 5609 5609 5608 5605 5602 5597 5588 5588 5590 5588 5587 5584 5586 5587 5588 5587 5586 5585 5583 5581 5579
5620 5620 5620 5621 5622 5622 5623 5624 5625 5625 5623 5623 5622 5624 5625 5624 5623 5622 5620 5614 5611 5607 5604 5600 5598 5599 5594 5590 5587 5584 5582 5580 5578 5581 5587 5587 5587 5586 5585 5583 5582 5579 5577